sat.trackr.live / text

‹ back to catalog

STARLINK-5993

NORAD 56449 · 2023-064B

PAYLOAD ACTIVE UNKNOWN

§ Identity

Operator
Country
US
Launch date
2023-05-10
Launch site
AFWTR
Launch vehicle
Mass (kg)
RCS (m²)

Purposes: comms

External: N2YO · Heavens-Above · Gunter

§ Orbital elements

Epoch: 2026-05-25T01:54:18.501984Z

Period
96.11 min
Inclination
69.9981°
Eccentricity
0.0003055
Mean motion
14.98332350 rev/d
Perigee alt
569.9 km
Apogee alt
574.2 km
Semi-major
6,950.2 km
B*
7.3787e-5
RAAN
312.0439°
Arg perigee
267.6503°
Mean anomaly
92.4306°
Rev number
16,668

§ Raw data

STARLINK-59931 56449U 23064B   26145.07938081  .00000788  00000+0  73787-4 0  99952 56449  69.9981 312.0439 0003055 267.6503  92.4306 14.98332350166685

JSON: /api/v1/satellites/56449 · /tle

For live sub-satellite position, see the globe view (requires WebGL).

§ Visibility from observer

Set your observer location to see the next 7 days of passes ≥ 10°. The values pass through the URL so the page stays shareable.

No JS? Fill the form by hand. The geolocation button needs JavaScript.